Location: Fort Wayne
(41.1310°N, 85.1290°W)
Time: 21:26:23
(UTC-04:00)

COSMOS 2406 - Visible Passes

Search period start: 29 April 2016 00:00
Search period end: 09 May 2016 00:00
Orbit: 844 x 865 km, 71.0° (Epoch: 29 April)

Date Brightness Start Highest point End Pass type
(mag) Time Alt. Az. Time Alt. Az. Time Alt. Az.
29 Apr 4.2 05:31:12 10° S 05:36:33 45° ESE 05:41:57 10° NE visible
30 Apr 4.2 05:19:57 10° S 05:25:18 46° ESE 05:30:43 10° NE visible
01 May 4.1 05:08:41 10° S 05:14:03 47° ESE 05:19:30 10° NE visible
02 May 4.0 04:57:36 11° S 05:02:48 48° ESE 05:08:16 10° NE visible
03 May 4.0 04:47:05 15° S 04:51:34 49° ESE 04:57:02 10° NE visible
04 May 3.9 04:36:29 19° S 04:40:19 49° ESE 04:45:48 10° NE visible
05 May 3.8 04:25:49 23° S 04:29:04 50° ESE 04:34:35 10° NE visible
06 May 3.8 04:15:06 28° SSE 04:17:50 51° ESE 04:23:21 10° NNE visible
06 May 4.5 05:57:50 10° WSW 06:02:26 25° NW 06:07:06 10° N visible
07 May 3.7 04:04:21 33° SSE 04:06:35 52° ESE 04:12:07 10° NNE visible
07 May 4.6 05:46:39 10° WSW 05:51:13 24° NW 05:55:50 10° N visible
08 May 3.7 03:53:32 38° SSE 03:55:20 53° ESE 04:00:53 10° NNE visible
08 May 4.6 05:35:37 11° WSW 05:40:00 24° NW 05:44:34 10° N visible
